Regional Weather Roundup
Issued by NWS

Home | Current Version | Previous Version | Text Only | Print | Product List | Glossary On
Versions: 1 2 3 4 5 6 7 8 9 10 11 12 13 14 15 16 17 18 19 20 21 22 23 24 25 26 27 28 29 30 31 32 33 34 35 36 37 38 39 40 41 42 43 44 45 46 47 48 49 50
000
ASUS43 KTOP 310208
RWRKS

WEATHER ROUNDUP FOR KANSAS
NATIONAL WEATHER SERVICE GOODLAND KS
900 PM CDT SAT JUL 30 2016

NOTE:  "FAIR" INDICATES FEW OR NO CLOUDS BELOW 12,000 FEET WITH NO
SIGNIFICANT WEATHER AND/OR OBSTRUCTIONS TO VISIBILITY.

KSZ001>006-013>018-027>032-041>047-310300-
NORTHWEST KANSAS

CITY           SKY/WX    TMP DP  RH WIND       PRES   REMARKS
GOODLAND       CLOUDY    80  65  59 SE12      29.91S
HAYS           CLEAR     82  66  57 SE12      29.90R
HILL CITY      CLEAR     83  67  58 SE12      29.89S
RUSSELL        CLEAR     81  68  64 SE13      29.89S
$$

KSZ061>065-074>080-084>089-310300-
SOUTHWEST KANSAS

CITY           SKY/WX    TMP DP  RH WIND       PRES   REMARKS
DODGE CITY     CLEAR     83  63  50 SE13      29.90R
ELKHART          N/A     83  61  47 S12         N/A
GARDEN CITY    CLEAR     82  68  62 SE16      29.87F
GREAT BEND     CLEAR     81  66  61 SE12      29.90S
LIBERAL        CLEAR     86  57  37 S10       29.89F
PRATT          CLEAR     81  65  59 SE7       29.91S
$$

KSZ066>073-081>083-090>101-310300-
SOUTHEAST KANSAS

CITY           SKY/WX    TMP DP  RH WIND       PRES   REMARKS
CHANUTE        CLEAR     78  71  79 SE5       29.94R
COFFEYVILLE    CLEAR     79  71  76 S6        29.94R
HUTCHINSON     CLEAR     81  68  64 SE7       29.91R
NEWTON         CLEAR     78  70  76 SE8       29.93S
PARSONS        CLEAR     79  72  79 MISG      29.96R
WICHITA INTL   CLEAR     83  71  67 SE9       29.91S
WICHITA JABRA  CLEAR     81  69  67 SE8       29.92S
WICHITA MCCONL PTCLDY    82  70  66 S9        29.92S
WINFIELD       CLEAR     79  71  76 SE7       29.94R
$$

KSZ007>012-019>026-033>040-048>060-102>105-310300-
NORTHEAST KANSAS

CITY           SKY/WX    TMP DP  RH WIND       PRES   REMARKS
CONCORDIA      PTCLDY    76  69  79 SE9       29.92S
EMPORIA        PTCLDY    77  70  79 SE6       29.94R
LAWRENCE       CLEAR     75  71  87 E3        29.94S
MANHATTAN      CLEAR     78  70  76 E3        29.92S
MARYSVILLE     CLEAR     73  68  83 SE6       29.94S
OLATHE IND     CLEAR     79  68  69 E6        29.96S
OLATHE EXE     CLEAR     77  67  71 E8        29.96S
SALINA         CLEAR     84  68  58 SE9       29.90S
TOPEKA BILLARD CLEAR     77  70  79 E5        29.94S
TOPEKA FORBES  CLEAR     78  71  79 E5        29.94S
$$




USA.gov is the U.S. government's official web portal to all federal, state and local government web resources and services.